sat.trackr.live / text

‹ back to catalog

KUIPER-00112

NORAD 65150 · 2025-171U

PAYLOAD ACTIVE UNKNOWN

§ Identity

Operator
Country
US
Launch date
2025-08-11
Launch site
AFETR
Launch vehicle
Mass (kg)
RCS (m²)

External: N2YO · Heavens-Above · Gunter

§ Orbital elements

Epoch: 2026-09-21T13:12:34.762176Z

Period
97.30 min
Inclination
51.9033°
Eccentricity
0.0000313
Mean motion
14.79936393 rev/d
Perigee alt
629.3 km
Apogee alt
629.7 km
Semi-major
7,007.7 km
B*
3.0057e-4
RAAN
9.5367°
Arg perigee
120.5967°
Mean anomaly
239.5027°
Rev number
6,192

§ Raw data

KUIPER-001121 65150U 25171U   26264.55040234  .00002071  00000+0  30057-3 0  99932 65150  51.9033   9.5367 0000313 120.5967 239.5027 14.79936393 61927

JSON: /api/v1/satellites/65150 · /tle

For live sub-satellite position, see the globe view (requires WebGL).

§ Visibility from observer

Set your observer location to see the next 7 days of passes ≥ 10°. The values pass through the URL so the page stays shareable.

No JS? Fill the form by hand. The geolocation button needs JavaScript.